Location: Borojevi?i
(45.0486°N, 16.2297°E)
Time: 05:03:54
(UTC+00:00)

Cosmos 1153 Rocket - Pass Details

Date: 08 August 2020
Orbit: 954 x 1005 km, 82.9° (Epoch: 19 September)

Event Time Altitude Azimuth Distance (km) Brightness Sun altitude
Exits shadow 21:03:26 37° 197° (SSW) 1,435 5.0 -23.6°
Maximum altitude 21:06:01 80° 278° (W) 977 4.5 -23.8°
Drops below altitude 10° 21:12:13 10° 6° (N) 2,707 7.5 -24.4°
Sets 21:14:44 0° 8° (N) 3,663 8.3 -24.6°
